LBBGLBWN

Guest
Details From LBBG - Burgas
To LBWN - Varna
Flight Number -
Tags Routegen Generated
Created
Modified
Stats Distance 53 nm / 98 km
Max Altitude 200 ft / 61 m
Waypoints 5
Social Downloads 18
Likes 0
Share

Download

Looking for another format? Having issues loading an existing format? Contact us
Advertisement - Login to hide

Notes

Departing runway 4 LBBG. Arriving runway 9 LBWN.

Route

LBBG +42.63_+027.60 +42.92_+027.82 +43.21_+028.04 LBWN

ID Type Via Altitude (ft/m) Position (lat/lon) Dist (leg/tot) Name
O LBBG APT - 200 / 61 42.58043 / 27.52888 - / 0 nm
+42.63_+027.60 DME - 200 / 61 42.63221 / 27.59757 4 / 4 nm
+42.92_+027.82 DME - 200 / 61 42.92235 / 27.81763 19 / 24 nm
+43.21_+028.04 DME - 200 / 61 43.21249 / 28.03769 19 / 44 nm
O LBWN APT - 0 / 0 43.23064 / 27.84064 8 / 52 nm

Altitude Profile

Advertisement - Login to hide

LBBG

Details ICAO LBBG (BOJ)
Name Burgas
Region Bulgaria
Timezone Europe/Sofia (UTC+2.0)
Stats Elevation 134 ft / 41 m (AMSL)
Location 42.570100° 27.515300°
Runways 1
Magnetic Variation 5.910° E

METAR

LBBG 290830Z 20023G34KT 8000 BKN035 OVC046 21/14 Q0994 NOSIG

Decode

TAF

TAF TAF LBBG 290500Z 2906/3006 21020KT 9999 FEW030 SCT045 TEMPO 2906/2914 21024G36KT BECMG 2914/2915 30014KT TEMPO 2915/2919 5000 RA SCT010 BKN040 BECMG 2919/2921 VRB04KT BECMG 3002/3004 22016KT

Decode

Departure Runways

ID Width Length Bearing (true/mag) Surface Threshold Overrun Markings Lighting
04 148 ft / 45 m 10,509 ft / 3,203 m 44.26° / 38.35° CONCRETE 0 ft / 0 m 0 ft / 0 m PREC-APP CENTERLINE EDGE THRESHOLD ALSF-I
22 148 ft / 45 m 10,509 ft / 3,203 m 224.28° / 218.37° CONCRETE 0 ft / 0 m 0 ft / 0 m PREC-APP CENTERLINE EDGE THRESHOLD ALSF-II TDZ

LBWN

Details ICAO LBWN (VAR)
Name Varna Airport
Region Bulgaria
Timezone Europe/Sofia (UTC+2.0)
Stats Elevation 229 ft / 70 m (AMSL)
Location 43.232000° 27.825300°
Runways 1
Magnetic Variation 6.058° E

METAR

LBWN 290830Z 23018KT 8000 SCT035 BKN045 21/13 Q0993 NOSIG

Decode

TAF

TAF LBWN 290500Z 2906/3006 15012KT 9999 SCT030 BECMG 2906/2908 22020KT TEMPO 2908/2911 22024G36KT BECMG 2911/2912 28014KT TEMPO 2912/2918 5000 RA SCT015 BKN040 BECMG 2918/2920 VRB02KT

Decode

Destination Runways

ID Width Length Bearing (true/mag) Surface Threshold Overrun Markings Lighting
09 148 ft / 45 m 8,443 ft / 2,573 m 96.95° / 90.89° ASPHALT 98 ft / 30 m 0 ft / 0 m PREC-APP CENTERLINE EDGE THRESHOLD REIL-OMNI
27 148 ft / 45 m 8,443 ft / 2,573 m 276.97° / 270.91° ASPHALT 112 ft / 34 m 0 ft / 0 m PREC-APP CENTERLINE EDGE THRESHOLD REIL-OMNI

Approach Navaids

Runway Type Ident Frequency Range Bearing (true/mag) Slope Elevation
09 LOC-ILS IWN 109.90 MHz 18 nm / 33 km 96.96° / 90.90 ° - 229 ft / 70 m (AMSL)
09 MM MM - - 97.12° / 91.07 ° - 230 ft / 70 m (AMSL)
09 GS IWN 109.90 MHz 10 nm / 19 km 96.96° / 90.90 ° 3.00° 229 ft / 70 m (AMSL)
09 OM OM - - 97.12° / 91.07 ° - 230 ft / 70 m (AMSL)

Popular Alternatives